Temp
44 44 42 42 42 42 41 40 38 37 37 36 36 35 35 35 35 35 34 34 34 33 33 33 33 33 32 32 32 31 30 31 29 32 32 33 31 32 32 32 32 33 34
43 43 42 42 41 40 40 38 37 37 37 35 35 35 34 34 34 34 33 33 33 32 32 31 31 31 31 30 30 30 30 30 29 26 29 29 29 31 31 30 31 32 33
40 41 41 40 39 39 38 37 37 36 35 34 35 34 34 34 33 34 34 33 33 33 32 31 31 30 28 29 29 29 29 29 28 26 26 28 29 29 29 31 30 31 32
39 39 38 39 39 39 38 36 36 35 34 34 35 35 35 34 34 34 34 33 32 32 32 32 31 30 29 29 28 28 27 26 26 25 25 26 26 28 28 26 27 30 29
37 37 37 37 39 38 36 35 35 35 35 35 34 34 34 33 34 33 34 32 31 30 30 31 31 31 31 30 29 27 26 25 25 24 24 25 25 25 25 27 24 27 28
37 37 37 36 36 35 34 34 33 33 33 33 32 32 32 34 37 37 34 31 31 30 29 30 31 29 31 33 33 32 29 24 21 23 25 23 25 25 26 25 24 22 21
36 35 34 34 34 34 33 32 32 32 32 32 32 31 31 32 38 37 36 31 30 30 30 30 29 29 28 29 33 35 34 35 32 27 25 26 25 26 26 25 24 22 21
35 34 33 33 33 32 32 32 32 32 31 31 30 31 31 31 38 38 35 30 30 30 30 29 29 29 28 27 26 25 26 27 28 29 29 28 28 28 28 27 24 20 20
34 33 33 33 32 31 30 31 32 31 31 30 30 29 30 30 37 36 34 29 28 29 29 29 29 28 30 33 26 23 24 25 28 31 32 33 33 34 31 24 19 16 17
34 33 33 33 31 30 31 30 31 31 30 29 27 28 28 27 37 35 34 31 28 28 27 28 28 29 31 33 29 26 22 24 24 24 24 27 29 27 29 26 21 15 14
31 31 31 32 30 31 31 30 29 28 27 26 26 26 27 28 30 35 35 30 30 29 28 27 28 32 33 33 33 28 25 28 25 26 24 23 22 21 21 21 21 18 15
29 28 28 28 30 30 29 28 29 28 26 26 26 25 26 27 29 34 35 34 34 30 28 28 27 30 32 33 33 33 33 32 30 24 20 19 19 19 20 20 19 19 20
27 26 27 29 30 30 29 28 28 28 27 26 26 26 26 25 27 32 33 35 35 32 30 28 29 31 32 32 33 33 30 27 24 20 18 18 20 21 19 17 17 17 16
28 29 29 29 29 30 30 30 29 28 27 27 27 28 28 24 24 25 28 30 31 34 32 29 30 29 28 27 23 23 22 21 20 19 19 20 18 16 15 16 13 12 9
30 29 29 30 30 29 29 30 30 31 32 30 30 30 27 23 24 26 26 24 24 24 15 15 17 17 18 18 17 17 18 17 16 16 16 15 14 15 13 13 11 8 5
26 26 27 28 27 25 25 22 29 29 33 34 32 28 23 28 31 31 30 29 29 28 14 13 13 14 15 13 12 13 13 12 13 13 12 12 11 10 10 10 8 5 3
25 23 22 22 23 22 22 22 21 26 31 31 31 31 29 28 31 31 31 30 28 29 13 11 11 10 10 10 9 8 8 9 8 9 8 8 8 7 6 5 4 4 3
20 20 21 20 20 20 20 20 21 23 22 24 28 27 28 30 30 31 31 22 12 9 5 6 6 5 5 5 5 4 4 4 4 5 4 3 3 3 1 0 1 -0 -0
19 17 15 15 15 15 16 16 16 17 16 14 14 20 19 30 30 24 19 8 6 4 -0 -0 -0 -1 -0 -1 -1 -2 -2 -0 -0 -1 -1 -2 -2 -2 -3 -3 -1 -2 -1
12 12 12 12 11 11 11 12 11 11 11 10 9 8 6 12 6 1 -3 -2 0 -0 -2 -1 -5 -6 -5 -5 -5 -5 -4 -5 -3 -5 -4 -4 -3 -3 -2 -5 -3 -2 -2
6 6 6 7 6 4 5 7 7 7 7 5 4 2 7 4 2 -0 -3 -2 -1 -3 -4 -5 -7 -8 -9 -8 -9 -7 -8 -4 -7 -8 -7 -6 -6 -5 -5 -3 -3 -4 -4
3 -0 -1 -2 1 1 -1 1 1 1 1 1 -0 2 17 0 -1 -1 -2 -4 -6 -7 -8 -7 -7 -8 -8 -9 -8 -8 -8 -8 -7 -9 -8 -9 -8 -6 -6 -5 -6 -5 -7
1 -0 -3 -5 -3 -3 -4 -5 -3 -2 -3 -3 -2 -1 -2 -3 -3 -3 -4 -7 -8 -7 -9 -10 -8 -8 -10 -13 -11 -7 -7 -7 -6 -8 -8 -8 -8 -7 -7 -7 -8 -11 -12
-3 -3 -3 -6 -6 -6 -6 -8 -6 -6 -5 -7 -5 -3 -1 -3 -5 -4 -5 -5 -7 -7 -9 -8 -10 -10 -8 -12 -13 -13 -12 -9 -11 -10 -10 -8 -9 -10 -9 -11 -11 -13 -13
-7 -7 -7 -9 -10 -9 -8 -9 -7 -10 -10 -7 -8 -7 -6 -6 -6 -6 -6 -6 -7 -7 -6 -8 -10 -10 -9 -11 -11 -13 -15 -7 -8 -13 -14 -12 -12 -13 -14 -14 -13 -14 -15
-9 -9 -13 -13 -13 -15 -15 -12 -14 -12 -13 -11 -10 -10 -7 -6 -5 -5 -6 -8 -8 -8 -8 -7 -9 -10 -11 -10 -10 -9 -10 -5 -8 -10 -11 -12 -12 -13 -15 -17 -18 -17 -15
MSLP
1016.72 1017.29 1018.22 1019.02 1019.82 1020.53 1021.19 1022.01 1022.74 1023.56 1024.30 1025.09 1025.76 1026.52 1027.42 1028.22 1028.87 1029.30 1029.95 1030.54 1031.00 1031.67 1032.30 1032.66 1033.22 1033.68 1034.19 1034.55 1034.77 1035.18 1035.53 1035.80 1036.02 1036.19 1036.35 1036.21 1036.12 1036.02 1035.84 1035.66 1035.36 1034.93 1034.18
1016.37 1017.05 1017.66 1018.40 1019.20 1019.98 1020.73 1021.50 1022.28 1023.14 1024.03 1024.81 1025.64 1026.40 1027.17 1027.93 1028.58 1029.00 1029.63 1030.31 1030.84 1031.53 1032.15 1032.57 1033.06 1033.62 1034.00 1034.37 1034.74 1035.19 1035.61 1035.99 1036.09 1036.31 1036.21 1036.16 1036.06 1035.75 1035.40 1035.18 1034.78 1034.25 1034.06
1015.95 1016.48 1017.25 1017.93 1018.62 1019.31 1020.09 1020.99 1021.81 1022.75 1023.76 1024.72 1025.47 1026.22 1026.90 1027.63 1028.31 1028.90 1029.36 1030.06 1030.67 1031.27 1031.86 1032.29 1032.88 1033.40 1033.86 1034.32 1034.67 1035.13 1035.50 1035.83 1036.14 1036.25 1036.11 1036.03 1035.73 1035.42 1034.89 1034.44 1033.99 1033.70 1033.95
1015.30 1015.94 1016.54 1017.08 1017.74 1018.51 1019.32 1020.18 1021.14 1022.08 1023.06 1024.11 1024.96 1025.79 1026.57 1027.41 1028.12 1028.75 1029.46 1030.17 1030.77 1031.29 1031.72 1032.19 1032.68 1032.94 1033.38 1033.90 1034.28 1034.67 1035.14 1035.55 1035.89 1035.96 1035.94 1035.70 1035.35 1034.97 1034.76 1033.81 1032.95 1033.48 1033.07
1014.68 1015.21 1015.66 1016.63 1017.43 1018.27 1019.07 1019.90 1020.78 1021.68 1022.46 1023.35 1024.43 1025.44 1026.29 1026.98 1027.60 1028.24 1028.99 1029.81 1030.56 1031.30 1031.77 1032.33 1032.58 1032.79 1033.04 1033.41 1033.70 1034.12 1034.73 1035.11 1035.29 1035.32 1035.21 1035.13 1034.77 1034.56 1033.98 1033.66 1033.47 1032.71 1032.42
1013.70 1014.24 1015.14 1015.99 1016.83 1017.72 1018.66 1019.42 1020.34 1021.20 1021.97 1022.92 1023.88 1024.65 1025.66 1026.49 1026.96 1027.67 1028.48 1029.35 1030.44 1030.80 1031.62 1032.05 1032.38 1032.74 1032.82 1032.81 1033.01 1033.43 1034.01 1034.33 1034.43 1034.69 1034.36 1034.21 1033.87 1033.71 1033.37 1033.41 1033.21 1032.94 1032.15
1013.03 1013.63 1014.37 1015.30 1016.22 1016.99 1017.91 1018.87 1019.70 1020.53 1021.44 1022.38 1023.32 1024.10 1025.01 1025.70 1026.30 1027.08 1028.02 1029.18 1029.91 1030.68 1031.11 1031.60 1032.06 1032.23 1032.58 1032.64 1032.45 1032.48 1032.58 1032.68 1033.02 1033.45 1033.26 1033.26 1033.06 1032.86 1032.93 1032.74 1032.70 1032.57 1032.25
1012.30 1012.88 1013.67 1014.58 1015.54 1016.41 1017.22 1018.02 1018.89 1019.79 1020.66 1021.57 1022.64 1023.49 1024.39 1025.11 1025.62 1026.47 1027.55 1028.72 1029.27 1030.13 1030.43 1031.04 1031.26 1031.54 1031.86 1032.30 1032.50 1032.53 1032.47 1032.55 1032.54 1032.51 1032.37 1032.36 1032.42 1032.31 1032.24 1032.01 1032.38 1032.37 1032.02
1011.69 1012.32 1013.04 1013.98 1015.05 1016.09 1016.96 1017.76 1018.62 1019.43 1020.28 1021.24 1022.27 1023.12 1023.99 1024.69 1025.28 1026.14 1027.16 1028.25 1029.01 1029.64 1029.90 1030.34 1030.65 1030.86 1030.95 1031.22 1031.75 1031.83 1031.75 1031.78 1032.00 1031.91 1031.70 1031.45 1031.29 1031.08 1031.08 1031.79 1032.11 1032.23 1031.21
1011.40 1012.18 1013.00 1013.77 1014.72 1015.66 1016.60 1017.56 1018.46 1019.44 1020.36 1021.22 1022.33 1023.09 1023.73 1024.59 1024.98 1025.81 1026.56 1027.35 1028.40 1028.88 1029.34 1029.63 1029.84 1030.10 1030.37 1030.51 1030.62 1030.93 1030.84 1030.88 1031.47 1031.42 1031.22 1031.03 1030.84 1030.93 1030.92 1031.08 1031.40 1031.49 1031.66
1011.24 1012.21 1013.17 1013.87 1014.66 1015.52 1016.57 1017.42 1018.37 1019.33 1020.53 1021.55 1022.48 1023.24 1023.90 1024.47 1024.92 1025.26 1025.74 1026.67 1027.14 1027.84 1028.31 1028.68 1028.87 1028.98 1029.28 1029.53 1029.66 1029.91 1029.93 1030.20 1030.12 1030.19 1030.44 1030.55 1030.78 1030.87 1030.79 1030.87 1030.98 1031.05 1030.98
1011.58 1012.20 1013.04 1014.06 1014.78 1015.70 1016.74 1017.94 1018.71 1019.47 1020.57 1021.52 1022.48 1023.35 1023.90 1024.31 1024.65 1024.75 1025.12 1025.56 1026.12 1026.87 1027.26 1027.68 1028.11 1028.34 1028.42 1028.63 1028.80 1028.99 1029.03 1028.94 1029.10 1029.64 1030.18 1030.32 1030.36 1030.25 1030.21 1030.43 1030.59 1030.63 1030.50
1011.87 1012.64 1013.26 1014.09 1014.92 1015.63 1016.53 1017.75 1018.73 1019.35 1020.15 1021.18 1021.91 1022.74 1023.16 1023.57 1023.87 1024.08 1024.51 1024.91 1025.32 1025.70 1026.27 1026.85 1027.34 1027.46 1027.60 1027.89 1028.05 1028.21 1028.54 1028.96 1029.22 1029.64 1029.92 1029.82 1029.69 1029.54 1029.89 1030.23 1030.25 1030.31 1030.37
1012.27 1012.74 1013.29 1014.16 1015.08 1015.80 1016.69 1017.41 1018.12 1018.84 1019.52 1020.18 1020.91 1021.38 1021.92 1022.65 1023.13 1023.71 1024.15 1024.51 1024.86 1024.95 1025.50 1026.16 1026.41 1026.98 1027.52 1027.95 1028.53 1028.84 1029.13 1029.38 1029.66 1029.77 1029.80 1029.71 1029.78 1029.97 1030.06 1030.09 1030.21 1030.28 1030.24
1012.64 1013.33 1013.72 1014.56 1015.23 1016.01 1016.71 1017.14 1017.69 1018.18 1018.53 1019.08 1019.97 1020.67 1021.37 1022.09 1022.18 1022.68 1023.34 1023.91 1024.33 1025.14 1026.63 1027.08 1027.15 1027.46 1027.89 1028.33 1028.86 1029.15 1029.40 1029.64 1029.86 1029.91 1029.82 1029.79 1029.87 1029.90 1029.94 1030.06 1030.16 1030.35 1030.32
1013.28 1013.80 1014.17 1014.76 1015.36 1016.06 1016.86 1017.72 1018.09 1018.55 1019.00 1019.19 1019.67 1020.24 1021.02 1021.31 1021.69 1022.04 1022.48 1023.14 1023.80 1024.56 1025.93 1026.78 1027.28 1027.70 1028.13 1028.61 1029.07 1029.40 1029.63 1029.79 1029.88 1029.90 1029.87 1029.91 1029.90 1029.93 1029.94 1030.14 1030.34 1030.44 1030.21
1013.73 1014.44 1014.98 1015.43 1016.05 1016.65 1017.28 1017.89 1018.50 1018.82 1019.15 1019.61 1019.77 1020.18 1020.64 1021.11 1021.49 1021.88 1022.30 1022.89 1023.55 1024.13 1025.62 1026.65 1027.26 1027.82 1028.38 1028.80 1029.24 1029.56 1029.73 1029.87 1029.99 1029.95 1030.00 1030.12 1030.18 1030.11 1030.22 1030.20 1030.35 1030.21 1029.89
1014.61 1015.03 1015.40 1016.08 1016.58 1017.14 1017.69 1018.32 1018.64 1018.95 1019.47 1020.00 1020.32 1020.62 1021.01 1021.30 1021.66 1022.18 1022.49 1023.31 1024.69 1025.45 1026.41 1026.99 1027.44 1027.95 1028.55 1028.89 1029.30 1029.55 1029.72 1029.93 1030.07 1030.27 1030.27 1030.24 1030.34 1030.33 1030.28 1030.27 1030.24 1030.15 1029.98
1015.57 1016.00 1016.18 1016.68 1017.12 1017.58 1018.20 1018.89 1019.28 1019.71 1020.30 1020.88 1021.34 1021.54 1021.58 1021.80 1022.31 1023.03 1023.60 1024.26 1025.42 1026.40 1027.09 1027.51 1027.87 1028.36 1028.82 1029.13 1029.39 1029.51 1029.68 1029.89 1030.02 1030.16 1030.31 1030.42 1030.41 1030.41 1030.25 1030.35 1030.19 1030.06 1029.97
1016.75 1017.06 1017.29 1017.76 1018.16 1018.47 1019.00 1019.64 1020.26 1020.67 1021.25 1021.78 1022.17 1022.61 1022.78 1022.98 1023.91 1024.76 1025.43 1025.87 1026.32 1026.83 1027.32 1027.63 1028.17 1028.60 1028.97 1029.32 1029.41 1029.66 1029.83 1029.89 1030.02 1030.23 1030.28 1030.27 1030.25 1030.21 1030.04 1030.10 1030.00 1029.90 1029.81
1017.73 1018.37 1018.80 1019.09 1019.41 1019.73 1020.06 1020.46 1021.06 1021.53 1021.96 1022.51 1023.02 1023.48 1023.64 1024.11 1024.89 1025.61 1026.13 1026.39 1026.71 1027.20 1027.56 1027.91 1028.28 1028.56 1029.07 1029.25 1029.37 1029.39 1029.66 1029.69 1029.82 1030.03 1030.14 1030.02 1030.02 1029.94 1029.86 1029.77 1029.75 1029.82 1029.71
1018.92 1019.43 1019.87 1020.34 1020.60 1020.85 1021.22 1021.61 1022.11 1022.42 1022.84 1023.43 1024.02 1024.22 1023.92 1024.92 1025.44 1025.85 1026.24 1026.67 1027.16 1027.48 1027.67 1027.79 1028.05 1028.50 1028.72 1028.91 1028.87 1028.86 1029.05 1029.22 1029.36 1029.49 1029.49 1029.54 1029.63 1029.59 1029.55 1029.58 1029.64 1029.64 1029.65
1019.82 1020.18 1020.81 1021.26 1021.56 1021.82 1022.16 1022.56 1022.85 1023.20 1023.65 1024.05 1024.38 1024.58 1024.93 1025.42 1025.83 1026.11 1026.39 1026.71 1027.09 1027.21 1027.56 1028.03 1028.10 1028.21 1028.38 1028.55 1028.45 1028.43 1028.54 1028.39 1028.49 1028.74 1028.82 1028.96 1029.11 1029.14 1029.22 1029.33 1029.34 1029.43 1029.46
1020.87 1021.25 1021.70 1022.30 1022.58 1022.81 1023.13 1023.45 1023.68 1023.92 1024.23 1024.59 1024.85 1025.01 1025.12 1025.42 1025.77 1026.08 1026.35 1026.60 1026.94 1026.97 1027.30 1027.33 1027.54 1027.49 1027.43 1027.63 1027.82 1027.82 1027.90 1027.81 1027.97 1028.16 1028.14 1028.23 1028.47 1028.63 1028.82 1028.95 1029.06 1029.03 1029.08
1022.34 1022.74 1023.12 1023.43 1023.51 1023.68 1023.90 1024.15 1024.34 1024.55 1024.77 1024.82 1025.02 1025.12 1025.19 1025.35 1025.55 1025.69 1025.85 1026.07 1026.22 1026.42 1026.43 1026.68 1026.90 1026.83 1026.82 1026.93 1026.96 1027.03 1027.14 1026.86 1026.83 1027.30 1027.57 1027.79 1027.90 1028.00 1028.21 1028.39 1028.50 1028.59 1028.71
1023.56 1023.90 1024.32 1024.43 1024.69 1024.81 1024.93 1025.09 1025.19 1025.29 1025.35 1025.25 1025.23 1025.22 1025.17 1025.16 1025.22 1025.34 1025.49 1025.81 1025.87 1025.77 1025.66 1025.71 1025.85 1026.01 1026.02 1026.06 1025.98 1025.97 1026.08 1025.90 1025.87 1026.17 1026.46 1026.86 1027.15 1027.19 1027.39 1027.67 1027.92 1028.11 1028.07
Wind_Speed
14 13 13 11 11 11 11 11 11 11 12 12 12 12 12 11 9 9 9 10 10 9 8 8 8 7 5 4 4 4 4 3 3 2 3 2 4 5 7 7 8 7 7
13 12 13 12 13 12 11 12 12 13 12 13 12 12 12 11 10 11 11 9 10 10 9 8 9 6 7 6 4 5 5 5 3 5 2 3 5 6 8 9 7 6 8
13 13 13 14 14 14 13 13 13 13 12 12 12 13 13 12 11 9 10 10 9 9 9 8 9 9 7 6 5 5 4 4 5 5 4 2 3 4 6 8 6 8 7
14 14 15 15 15 14 14 14 15 15 15 14 13 12 12 11 10 10 9 9 7 6 7 6 8 9 8 9 7 7 5 5 6 6 6 6 4 4 6 7 9 7 10
15 15 15 12 12 12 13 13 13 14 14 15 14 12 11 11 9 11 10 9 8 7 5 5 6 8 11 10 6 7 7 6 6 6 7 6 7 5 6 5 9 11 9
15 16 13 13 13 13 12 14 14 14 14 14 14 14 13 8 18 19 12 9 8 7 7 6 6 7 11 14 14 12 10 8 8 4 7 9 10 7 6 6 8 9 8
15 13 14 14 14 14 14 14 15 16 15 15 14 14 13 11 22 20 18 8 8 7 7 7 6 6 8 7 12 15 16 18 17 7 10 10 10 7 8 10 10 10 10
14 14 14 15 15 14 15 16 15 15 16 15 14 14 12 10 22 21 18 8 7 7 7 8 8 7 8 8 7 8 8 8 9 7 10 9 9 9 11 10 8 6 8
14 13 14 14 14 13 14 14 12 13 13 13 12 13 12 10 22 21 16 9 6 8 7 8 9 8 11 15 8 9 9 9 9 17 19 19 19 20 12 4 4 4 9
11 11 11 12 13 14 13 13 11 11 10 9 9 9 10 9 21 21 16 6 8 7 7 9 15 12 14 16 10 7 9 9 7 7 7 11 13 9 12 8 4 5 5
8 9 10 10 12 11 11 9 11 11 10 9 9 8 9 10 13 20 19 9 9 8 8 7 7 18 18 17 17 9 10 8 10 9 7 6 6 6 5 6 6 6 7
9 10 10 10 9 10 12 10 11 11 11 9 8 6 6 7 11 17 19 23 16 9 8 7 6 15 16 16 13 14 17 15 7 2 2 4 5 6 6 7 8 8 9
10 9 10 10 10 11 12 12 10 9 9 9 8 8 8 7 8 22 19 20 24 12 7 9 13 14 14 13 16 15 8 2 2 3 5 6 6 6 4 4 6 7 8
11 11 11 11 11 10 8 9 9 9 8 9 11 11 8 6 7 6 8 9 18 14 10 7 8 8 7 6 1 1 2 2 3 5 6 6 3 3 4 4 5 4 6
9 8 9 7 9 9 5 7 7 7 9 9 8 7 7 7 9 12 12 8 6 5 6 2 2 2 2 2 2 2 1 1 3 3 4 6 7 7 6 3 4 3 5
8 6 6 6 6 6 7 5 6 6 7 7 7 8 2 5 11 17 17 15 16 16 3 3 3 3 3 3 2 1 1 2 2 3 4 5 6 6 6 3 3 4 6
7 6 5 6 6 6 6 6 6 4 8 6 8 10 10 9 10 13 13 12 12 13 3 3 4 5 4 3 3 2 2 2 1 2 3 4 4 4 4 4 4 5 7
6 6 5 5 5 5 6 5 5 7 7 5 6 7 9 11 11 12 14 13 4 5 2 4 4 4 4 3 3 3 2 1 1 2 2 2 2 3 3 4 4 5 6
5 4 4 4 4 5 5 5 4 5 5 4 2 5 2 13 10 12 9 3 3 3 2 3 3 4 3 3 3 2 2 2 2 1 1 2 2 2 3 4 5 6 6
6 7 5 4 4 4 4 5 4 4 5 4 3 3 2 5 2 2 3 1 2 2 3 3 3 3 3 2 2 2 2 2 2 2 3 3 3 3 4 4 4 5 5
5 5 6 5 4 3 3 4 3 4 5 4 3 2 5 3 3 3 3 3 3 3 3 3 3 3 3 3 3 3 3 3 3 3 3 3 3 3 3 4 4 4 5
5 5 4 4 3 4 4 4 3 3 4 4 2 2 10 2 3 3 3 2 2 2 2 3 4 4 4 4 4 4 4 5 4 4 4 3 3 3 3 4 4 5 4
5 6 5 4 4 5 5 3 4 4 4 4 4 3 3 3 3 3 3 3 3 3 3 3 4 4 4 4 4 5 5 6 5 4 4 4 4 4 4 5 4 3 3
5 5 5 4 3 4 4 4 3 4 4 4 3 3 3 3 3 3 3 2 3 3 4 4 5 6 4 4 4 4 5 5 3 5 6 4 5 5 5 4 4 4 5
5 5 4 3 3 3 4 3 3 3 3 4 4 3 3 4 4 4 4 4 4 4 5 5 5 7 8 8 8 8 8 11 7 7 4 5 6 6 4 4 4 3 4
5 5 4 3 3 3 2 1 1 2 2 3 3 3 3 3 3 3 3 4 4 5 6 4 5 9 9 8 10 10 10 11 9 10 6 6 6 6 4 6 6 4 6
Wind_Direction
178 172 167 173 173 167 174 171 167 156 158 161 160 153 152 151 148 140 141 142 136 138 141 143 141 146 143 132 116 117 129 149 199 264 263 296 286 274 290 296 301 300 312
178 176 177 172 172 171 173 170 164 166 167 160 158 157 155 156 156 153 149 153 150 153 159 147 152 156 155 152 150 160 178 184 188 251 272 261 251 269 286 296 301 309 309
176 176 177 178 177 179 175 169 167 162 161 157 159 164 163 164 160 157 157 161 161 162 163 165 166 169 168 170 172 181 190 195 210 234 270 253 271 271 292 299 310 312 292
179 182 186 185 182 181 174 170 169 168 164 167 171 168 165 161 161 159 157 160 158 159 169 174 175 180 175 180 186 195 194 208 221 237 258 269 267 268 282 315 318 303 313
185 188 192 183 180 176 172 170 167 170 170 167 163 163 162 165 166 163 163 162 161 165 165 183 194 191 194 192 183 194 195 214 228 240 256 266 270 268 298 313 295 308 312
190 194 183 176 172 173 171 169 168 170 168 164 169 164 165 170 176 173 160 158 169 158 186 197 202 197 210 209 214 210 206 202 222 230 258 258 267 269 283 283 289 300 310
193 187 180 175 176 175 169 169 174 172 166 172 170 164 169 168 176 176 170 158 165 186 187 196 208 208 202 214 229 234 236 231 226 216 246 250 271 266 274 278 270 274 275
191 186 179 178 178 174 172 176 175 172 173 171 170 170 166 172 177 176 167 155 169 195 188 205 215 207 204 206 211 231 238 242 251 262 262 268 263 267 256 260 268 284 282
193 189 181 176 172 170 175 175 171 168 167 169 168 163 166 168 175 173 166 168 188 212 201 212 215 219 219 224 211 229 242 247 248 254 258 264 266 268 286 175 243 280 299
187 181 170 166 166 171 169 167 164 163 160 146 148 161 160 161 178 181 179 165 197 212 206 227 217 221 226 230 234 229 252 258 236 238 251 267 275 273 262 246 245 253 272
133 138 150 158 159 160 151 148 146 142 137 144 152 162 169 171 184 194 188 189 206 207 217 217 216 229 232 233 237 225 238 260 256 260 244 241 242 248 243 233 230 241 250
130 133 137 138 142 141 141 140 142 140 143 147 154 161 185 183 191 208 204 215 210 217 216 220 211 223 233 242 250 255 264 271 273 256 274 264 261 255 251 240 237 245 252
123 126 126 129 136 141 139 141 141 146 151 162 171 186 195 195 203 212 217 221 228 227 215 207 211 222 231 242 251 263 277 298 312 297 289 282 277 283 272 251 248 250 267
134 138 137 138 140 141 144 154 152 162 168 176 187 198 193 181 197 196 215 225 238 235 203 203 205 197 193 219 177 15 358 334 305 292 295 302 320 292 276 255 271 264 278
127 130 133 138 145 149 140 163 174 182 185 179 193 194 186 201 210 202 198 200 191 170 123 113 144 165 191 173 122 109 94 319 274 282 290 303 306 305 297 278 270 281 278
117 122 128 133 127 130 131 104 83 134 167 182 178 172 192 208 209 210 207 206 203 196 104 155 168 176 169 156 163 195 231 263 285 301 298 298 298 301 304 285 285 286 292
126 127 117 122 133 138 136 139 132 132 144 175 201 204 196 184 189 187 180 176 185 181 142 154 163 168 178 187 188 196 221 253 303 283 294 298 300 296 290 296 298 290 289
103 104 124 128 133 136 144 141 142 152 151 140 134 136 162 164 158 164 171 118 92 61 115 161 174 178 190 192 189 193 211 239 260 293 297 295 282 281 284 280 281 288 295
95 93 98 103 102 115 120 126 122 124 135 127 100 86 45 161 149 89 100 102 143 165 153 169 171 174 182 181 190 195 200 216 213 237 256 258 265 241 264 269 275 275 294
73 84 82 98 108 107 112 128 125 127 135 142 140 137 108 69 92 68 45 96 141 148 164 168 174 172 179 191 180 195 210 220 241 243 247 245 251 234 261 265 271 288 286
87 77 84 82 81 90 103 126 131 144 153 153 143 162 148 113 149 166 178 172 164 164 171 177 176 182 199 196 206 202 235 263 249 249 251 249 246 248 251 264 274 265 271
80 83 73 89 95 87 94 106 121 122 125 136 145 213 162 118 151 161 162 175 181 187 193 182 199 208 205 202 204 208 219 233 241 236 242 242 238 242 252 260 258 266 271
90 90 81 74 88 98 84 90 110 121 131 141 148 131 116 139 161 177 187 192 193 195 190 202 221 230 225 228 217 216 219 224 227 206 222 232 235 240 235 253 248 249 259
68 78 91 88 85 92 105 110 111 116 132 144 152 165 172 178 190 209 209 208 215 218 217 217 223 233 242 232 230 222 228 239 223 222 209 217 231 234 244 242 244 241 261
59 66 73 91 98 111 110 117 128 141 159 172 180 184 191 192 202 213 213 215 219 231 234 222 227 240 245 243 241 232 231 242 218 206 203 207 221 222 225 231 242 245 245
64 68 68 67 68 71 101 140 202 203 207 222 225 225 217 217 226 226 222 222 233 237 239 235 231 236 240 242 241 242 235 233 223 217 201 204 215 224 213 229 232 237 246